Flight Track Log - Related Links

Times and Time Zones

All times are in EDT time to prevent confusion due to time zone crossing. See the TSU361 flight status page for this flight to view local times or setup timezone preferences in your user account.

Time Position Orientation Groundspeed Altitude Reporting Facility
EDT Latitude Longitude Course Direction KTS MPH feet Rate Location/Type
Sun 01:17:24 AM 41.9039 -88.7214 260° West 159 183 2,300  Level Chicago Center
Sun 01:18:24 AM 41.8956 -88.7844 260° West 178 205 4,400 2,000 Climbing Chicago Center
Sun 01:19:24 AM 41.8894 -88.8547 263° West 191 220 6,300 1,700 Climbing Chicago Center
Sun 01:20:24 AM 41.8839 -88.9303 264° West 203 234 7,800 1,650 Climbing Chicago Center
Sun 01:21:24 AM 41.8761 -89.0300 264° West 222 255 9,600 1,587 Climbing Chicago Center
Sun 01:22:25 AM 41.8700 -89.1169 265° West 232 267 11,000 1,438 Climbing Chicago Center
Sun 01:23:25 AM 41.8542 -89.2028 256° West 257 296 12,500 1,450 Climbing Chicago Center
Sun 01:24:25 AM 41.8172 -89.2778 237° Southwest 249 287 13,900 1,400 Climbing Chicago Center
Sun 01:25:25 AM 41.7814 -89.3522 237° Southwest 242 278 15,300 1,350 Climbing Chicago Center
Sun 01:26:25 AM 41.7433 -89.4283 236° Southwest 247 284 16,600 1,200 Climbing Chicago Center
Sun 01:27:25 AM 41.7053 -89.5072 237° Southwest 252 290 17,700 1,000 Climbing Chicago Center
Sun 01:28:25 AM 41.6656 -89.5925 238° Southwest 264 304 18,600 950 Climbing Chicago Center
Sun 01:29:25 AM 41.6244 -89.6781 237° Southwest 273 314 19,600 1,000 Climbing Chicago Center
Sun 01:30:25 AM 41.5828 -89.7644 237° Southwest 276 318 20,600 942 Climbing Chicago Center
Sun 01:31:26 AM 41.5428 -89.8494 238° Southwest 273 314 21,500 942 Climbing Chicago Center
Sun 01:32:26 AM 41.5039 -89.9314 238° Southwest 264 304 22,500 1,000 Climbing Chicago Center
Sun 01:33:26 AM 41.4658 -90.0119 238° Southwest 258 297 23,500 750 Climbing Chicago Center
Sun 01:34:26 AM 41.4258 -90.0928 237° Southwest 261 300 24,000 250 Climbing Chicago Center
Sun 01:35:26 AM 41.3792 -90.1803 235° Southwest 285 328 24,000  Level Chicago Center
Sun 01:36:26 AM 41.3303 -90.2769 236° Southwest 310 357 24,000  Level Chicago Center
Sun 01:37:26 AM 41.2806 -90.3794 237° Southwest 327 376 24,000  Level Chicago Center
Sun 01:38:26 AM 41.2297 -90.4883 238° Southwest 345 397 24,000  Level Chicago Center
Sun 01:39:26 AM 41.1847 -90.5928 240° Southwest 331 381 24,000  Level Chicago Center
Sun 01:40:26 AM 41.1400 -90.6964 240° Southwest 327 376 24,000  Level Chicago Center
Sun 01:41:27 AM 41.0942 -90.7989 239° Southwest 325 374 24,000  Level Chicago Center
Sun 01:42:27 AM 41.0478 -90.9006 239° Southwest 323 372 24,000  Level Chicago Center
Sun 01:43:27 AM 41.0022 -91.0031 240° Southwest 323 372 24,000  Level Chicago Center
Sun 01:44:27 AM 40.9569 -91.1061 240° Southwest 325 374 24,000  Level Chicago Center
Sun 01:45:27 AM 40.9100 -91.2069 238° Southwest 322 371 24,000  Level Chicago Center
Sun 01:46:27 AM 40.8636 -91.3106 239° Southwest 320 368 24,000  Level Chicago Center
Sun 01:47:27 AM 40.8181 -91.4108 239° Southwest 321 369 24,000  Level Chicago Center
Sun 01:48:27 AM 40.7719 -91.5117 239° Southwest 324 373 24,000  Level Chicago Center
Sun 01:49:27 AM 40.7256 -91.6131 239° Southwest 326 375 24,000  Level Chicago Center
Sun 01:50:27 AM 40.6792 -91.7139 239° Southwest 326 375 24,000  Level Chicago Center
Sun 01:51:28 AM 40.6328 -91.8158 239° Southwest 327 376 24,000  Level Chicago Center
Sun 01:52:28 AM 40.5853 -91.9175 238° Southwest 329 379 24,000  Level Chicago Center
Sun 01:53:28 AM 40.5383 -92.0186 239° Southwest 327 376 24,000  Level Chicago Center
Sun 01:54:28 AM 40.4914 -92.1203 239° Southwest 328 377 24,000  Level Chicago Center
Sun 01:55:23 AM 40.4447 -92.2233 239° Southwest 329 379 24,000  Level Kansas City Center
Sun 01:56:24 AM 40.3983 -92.3239 239° Southwest 326 375 24,000  Level Kansas City Center
Sun 01:57:24 AM 40.3508 -92.4286 239° Southwest 323 372 24,000  Level Kansas City Center
Sun 01:58:24 AM 40.3061 -92.5264 239° Southwest 321 369 24,000  Level Kansas City Center
Sun 01:59:26 AM 40.2642 -92.6222 240° Southwest 318 366 24,000  Level Kansas City Center
Sun 02:00:26 AM 40.2200 -92.7161 238° Southwest 317 365 24,000  Level Kansas City Center
Sun 02:01:26 AM 40.1700 -92.8261 239° Southwest 315 362 24,000  Level Kansas City Center
Sun 02:02:26 AM 40.1275 -92.9197 239° Southwest 313 360 24,000  Level Kansas City Center
Sun 02:03:26 AM 40.0819 -93.0100 237° Southwest 312 359 24,000  Level Kansas City Center
Sun 02:04:26 AM 40.0300 -93.1117 236° Southwest 315 362 24,000  Level Kansas City Center
Sun 02:05:26 AM 39.9808 -93.2075 236° Southwest 315 362 24,000  Level Kansas City Center
Sun 02:06:26 AM 39.9347 -93.3014 237° Southwest 316 364 24,000  Level Kansas City Center
Sun 02:07:26 AM 39.8872 -93.3964 237° Southwest 315 362 24,000  Level Kansas City Center
Sun 02:08:27 AM 39.8394 -93.4911 237° Southwest 316 364 24,000  Level Kansas City Center
Sun 02:09:27 AM 39.7917 -93.5867 237° Southwest 317 365 24,000  Level Kansas City Center
Sun 02:10:27 AM 39.7447 -93.6822 237° Southwest 317 365 24,000  Level Kansas City Center
Sun 02:11:27 AM 39.7008 -93.7753 239° Southwest 314 361 24,000  Level Kansas City Center
Sun 02:12:27 AM 39.6492 -93.8842 238° Southwest 316 364 24,000  Level Kansas City Center
Sun 02:13:27 AM 39.6047 -93.9753 238° Southwest 314 361 24,000  Level Kansas City Center
Sun 02:14:27 AM 39.5606 -94.0672 238° Southwest 313 360 24,000  Level Kansas City Center
Sun 02:15:27 AM 39.5175 -94.1594 239° Southwest 313 360 24,000  Level Kansas City Center
Sun 02:16:28 AM 39.4667 -94.2656 238° Southwest 312 359 24,000  Level Kansas City Center
Sun 02:17:28 AM 39.4244 -94.3581 239° Southwest 311 358 24,000  Level Kansas City Center
Sun 02:18:28 AM 39.3811 -94.4486 238° Southwest 310 357 24,000  Level Kansas City Center
Sun 02:19:28 AM 39.3358 -94.5367 236° Southwest 307 353 24,000  Level Kansas City Center
Sun 02:20:28 AM 39.2828 -94.6381 236° Southwest 305 351 24,000  Level Kansas City Center
Sun 02:21:28 AM 39.2375 -94.7256 236° Southwest 306 352 24,000  Level Kansas City Center
Sun 02:22:28 AM 39.1917 -94.8100 235° Southwest 300 345 24,000  Level Kansas City Center
Sun 02:23:28 AM 39.1450 -94.8908 233° Southwest 293 337 24,000  Level Kansas City Center
Sun 02:24:29 AM 39.0872 -94.9906 233° Southwest 307 353 24,000  Level Kansas City Center
Sun 02:25:29 AM 39.0372 -95.0756 233° Southwest 308 354 24,000  Level Kansas City Center
Sun 02:26:29 AM 38.9878 -95.1628 234° Southwest 313 360 24,000  Level Kansas City Center
Sun 02:27:29 AM 38.9383 -95.2506 234° Southwest 314 361 24,000  Level Kansas City Center
Sun 02:28:29 AM 38.8842 -95.3550 236° Southwest 311 358 24,000  Level Kansas City Center
Sun 02:29:29 AM 38.8458 -95.4511 243° Southwest 314 361 24,000  Level Kansas City Center
Sun 02:30:35 AM 38.8022 -95.5628 243° Southwest 312 359 24,000  Level Kansas City Center
Sun 02:31:35 AM 38.7700 -95.6606 247° West 311 358 24,000  Level Kansas City Center
Sun 02:32:35 AM 38.7358 -95.7592 246° West 314 361 24,000  Level Kansas City Center
Sun 02:33:35 AM 38.7017 -95.8569 246° West 314 361 24,000  Level Kansas City Center
Sun 02:34:36 AM 38.6667 -95.9728 249° West 312 359 24,000  Level Kansas City Center
Sun 02:35:36 AM 38.6369 -96.0731 249° West 313 360 24,000  Level Kansas City Center
Sun 02:36:36 AM 38.6131 -96.1742 253° West 311 358 24,000  Level Kansas City Center
Sun 02:37:36 AM 38.5869 -96.2744 252° West 312 359 24,000  Level Kansas City Center
Sun 02:38:36 AM 38.5564 -96.3914 252° West 309 356 24,000  Level Kansas City Center
Sun 02:39:36 AM 38.5306 -96.4922 252° West 311 358 24,000  Level Kansas City Center
Sun 02:40:36 AM 38.5042 -96.5917 251° West 309 356 24,000  Level Kansas City Center
Sun 02:41:36 AM 38.4794 -96.6911 252° West 307 353 24,000  Level Kansas City Center
Sun 02:42:37 AM 38.4500 -96.8108 253° West 308 354 24,000  Level Kansas City Center
Sun 02:43:37 AM 38.4292 -96.8967 253° West 312 359 24,000  Level Kansas City Center
Sun 02:44:37 AM 38.4053 -97.0019 254° West 310 357 24,000  Level Kansas City Center
Sun 02:45:37 AM 38.3981 -97.1097 265° West 306 352 24,000  Level Kansas City Center
Sun 02:46:37 AM 38.3903 -97.2183 265° West 308 354 24,000  Level Kansas City Center
Sun 02:47:37 AM 38.3822 -97.3256 265° West 306 352 24,000  Level Kansas City Center
Sun 02:48:37 AM 38.3544 -97.4292 251° West 313 360 24,000  Level Kansas City Center
Sun 02:49:37 AM 38.3208 -97.5294 247° West 310 357 24,000  Level Kansas City Center
Sun 02:50:37 AM 38.2489 -97.6242 226° Southwest 315 362 24,000  Level Kansas City Center
Sun 02:51:38 AM 38.1853 -97.6983 223° Southwest 312 359 24,000  Level Kansas City Center
Sun 02:52:38 AM 38.1200 -97.7733 222° Southwest 316 364 24,000  Level Kansas City Center
Sun 02:53:38 AM 38.0575 -97.8464 223° Southwest 316 364 24,000  Level Kansas City Center
Sun 02:54:38 AM 37.9933 -97.9228 223° Southwest 317 365 24,000  Level Kansas City Center
Sun 02:55:38 AM 37.9289 -98.0028 224° Southwest 323 372 24,000  Level Kansas City Center
Sun 02:56:38 AM 37.8633 -98.0767 222° Southwest 319 367 24,000  Level Kansas City Center
Sun 02:57:38 AM 37.7956 -98.1550 222° Southwest 314 361 24,000  Level Kansas City Center
Sun 02:58:38 AM 37.7325 -98.2142 217° Southwest 318 366 24,000  Level Kansas City Center
Sun 02:59:39 AM 37.6581 -98.2742 213° Southwest 318 366 24,000  Level Kansas City Center
Sun 03:00:39 AM 37.5833 -98.3364 213° Southwest 323 372 24,000  Level Kansas City Center
Sun 03:01:39 AM 37.5094 -98.3975 213° Southwest 322 371 24,000  Level Kansas City Center
Sun 03:02:39 AM 37.4350 -98.4589 213° Southwest 319 367 24,000  Level Kansas City Center
Sun 03:03:39 AM 37.3617 -98.5217 214° Southwest 320 368 24,000  Level Kansas City Center
Sun 03:04:39 AM 37.2872 -98.5808 212° Southwest 317 365 24,000  Level Kansas City Center
Sun 03:05:39 AM 37.2147 -98.6414 214° Southwest 315 362 24,000  Level Kansas City Center
Sun 03:06:39 AM 37.1417 -98.7031 214° Southwest 315 362 24,000  Level Kansas City Center
Sun 03:07:40 AM 37.0625 -98.7661 212° Southwest 312 359 24,000  Level Kansas City Center
Sun 03:08:40 AM 36.9886 -98.8264 213° Southwest 315 362 24,000  Level Kansas City Center
Sun 03:09:40 AM 36.9147 -98.8839 212° Southwest 313 360 24,000  Level Kansas City Center
Sun 03:10:40 AM 36.8428 -98.9436 214° Southwest 311 358 24,000  Level Kansas City Center
Sun 03:11:40 AM 36.7686 -99.0022 212° Southwest 314 361 24,000  Level Kansas City Center
Sun 03:12:40 AM 36.6969 -99.0628 214° Southwest 311 358 24,000  Level Kansas City Center
Sun 03:13:40 AM 36.6408 -99.1403 228° Southwest 305 351 24,000  Level Kansas City Center
Sun 03:14:40 AM 36.5906 -99.2294 235° Southwest 310 357 24,000  Level Kansas City Center
Sun 03:15:40 AM 36.5403 -99.3150 234° Southwest 309 356 24,000  Level Kansas City Center
Sun 03:16:41 AM 36.4925 -99.4031 236° Southwest 308 354 24,000  Level Kansas City Center
Sun 03:17:41 AM 36.4431 -99.4911 235° Southwest 310 357 24,000  Level Kansas City Center
Sun 03:18:41 AM 36.3956 -99.5772 236° Southwest 306 352 24,000  Level Kansas City Center
Sun 03:19:41 AM 36.3478 -99.6647 236° Southwest 307 353 24,000  Level Kansas City Center
Sun 03:20:41 AM 36.2997 -99.7514 235° Southwest 305 351 24,000  Level Kansas City Center
Sun 03:21:41 AM 36.2503 -99.8378 235° Southwest 307 353 24,000  Level Kansas City Center
Sun 03:22:42 AM 36.2006 -99.9233 234° Southwest 306 352 24,000  Level Kansas City Center
Sun 03:23:42 AM 36.1508 -100.0083 234° Southwest 306 352 24,000  Level Kansas City Center
Sun 03:24:42 AM 36.1019 -100.0925 234° Southwest 302 348 24,000  Level Kansas City Center
Sun 03:25:42 AM 36.0517 -100.1772 234° Southwest 304 350 24,000  Level Kansas City Center
Sun 03:26:42 AM 36.0033 -100.2622 235° Southwest 303 349 24,000  Level Kansas City Center
Sun 03:27:42 AM 35.9533 -100.3450 233° Southwest 301 346 24,000  Level Kansas City Center
Sun 03:28:42 AM 35.9011 -100.4306 233° Southwest 305 351 24,000  Level Kansas City Center
Sun 03:29:50 AM 35.8508 -100.5114 233° Southwest 303 349 24,000  Level Albuquerque Center
Sun 03:30:50 AM 35.8008 -100.5933 233° Southwest 300 345 24,000  Level Albuquerque Center
Sun 03:31:50 AM 35.7514 -100.6756 233° Southwest 299 344 24,000  Level Albuquerque Center
Sun 03:32:50 AM 35.6997 -100.7594 233° Southwest 301 346 24,000  Level Albuquerque Center
Sun 03:33:51 AM 35.6503 -100.8397 233° Southwest 299 344 24,000  Level Albuquerque Center
Sun 03:34:51 AM 35.5986 -100.9211 232° Southwest 300 345 24,000  Level Albuquerque Center
Sun 03:35:51 AM 35.5369 -101.0200 233° Southwest 302 348 24,000  Level Albuquerque Center
Sun 03:36:52 AM 35.4864 -101.1003 232° Southwest 301 346 24,000  Level Albuquerque Center
Sun 03:37:52 AM 35.4306 -101.1764 228° Southwest 300 345 24,000  Level Albuquerque Center
Sun 03:38:52 AM 35.3683 -101.2442 222° Southwest 299 344 24,000  Level Albuquerque Center
Sun 03:39:52 AM 35.3064 -101.3142 223° Southwest 300 345 24,000  Level Albuquerque Center
Sun 03:40:53 AM 35.2444 -101.3842 223° Southwest 301 346 24,000  Level Albuquerque Center
Sun 03:41:53 AM 35.1831 -101.4542 223° Southwest 300 345 24,000  Level Albuquerque Center
Sun 03:42:53 AM 35.1342 -101.5131 225° Southwest 301 346 24,000  Level Albuquerque Center
Sun 03:43:54 AM 35.0742 -101.5878 226° Southwest 303 349 24,000  Level Albuquerque Center
Sun 03:44:54 AM 35.0167 -101.6633 227° Southwest 301 346 24,000  Level Albuquerque Center
Sun 03:45:54 AM 34.9597 -101.7408 228° Southwest 305 351 24,000  Level Albuquerque Center
Sun 03:46:42 AM 34.9244 -101.8094 238° Southwest 300 345 24,000  Level Albuquerque Center
Sun 03:47:43 AM 34.8789 -101.8950 237° Southwest 299 344 24,000  Level Albuquerque Center
Sun 03:48:43 AM 34.8347 -101.9833 239° Southwest 301 346 24,000  Level Albuquerque Center
Sun 03:49:43 AM 34.7908 -102.0719 239° Southwest 305 351 24,000  Level Albuquerque Center
Sun 03:50:44 AM 34.7475 -102.1611 239° Southwest 305 351 24,000  Level Albuquerque Center
Sun 03:51:44 AM 34.7069 -102.2519 242° Southwest 306 352 24,000  Level Albuquerque Center
Sun 03:52:44 AM 34.6775 -102.3497 250° West 307 353 24,000  Level Albuquerque Center
Sun 03:53:44 AM 34.6489 -102.4464 250° West 306 352 24,000  Level Albuquerque Center
Sun 03:54:45 AM 34.6150 -102.5589 250° West 298 343 24,000  Level Albuquerque Center
Sun 03:55:45 AM 34.5611 -102.6306 228° Southwest 295 339 24,000  Level Albuquerque Center
Sun 03:56:45 AM 34.5108 -102.6953 227° Southwest 293 337 24,000  Level Albuquerque Center
Sun 03:57:46 AM 34.4439 -102.7758 225° Southwest 302 348 24,000  Level Albuquerque Center
Sun 03:58:46 AM 34.3822 -102.8497 225° Southwest 309 356 24,000  Level Albuquerque Center
Sun 03:59:46 AM 34.3200 -102.9231 224° Southwest 312 359 24,000  Level Albuquerque Center
Sun 04:00:47 AM 34.2592 -102.9997 226° Southwest 315 362 24,000  Level Albuquerque Center
Sun 04:01:47 AM 34.2081 -103.0606 225° Southwest 313 360 24,000  Level Albuquerque Center
Sun 04:02:47 AM 34.1478 -103.1347 226° Southwest 312 359 24,000  Level Albuquerque Center
Sun 04:03:47 AM 34.0897 -103.2092 227° Southwest 307 353 24,000  Level Albuquerque Center
Sun 04:04:48 AM 34.0317 -103.2819 226° Southwest 305 351 24,000  Level Albuquerque Center
Sun 04:05:48 AM 33.9625 -103.3700 227° Southwest 303 349 24,000  Level Albuquerque Center
Sun 04:06:48 AM 33.9042 -103.4431 226° Southwest 304 350 24,000  Level Albuquerque Center
Sun 04:07:49 AM 33.8469 -103.5164 227° Southwest 303 349 24,000  Level Albuquerque Center
Sun 04:08:49 AM 33.7892 -103.5883 226° Southwest 301 346 24,000  Level Albuquerque Center
Sun 04:09:49 AM 33.7311 -103.6611 226° Southwest 301 346 24,000  Level Albuquerque Center
Sun 04:11:44 AM 41.0500 -90.9167 50° Northeast 321 369 24,000  Level Chicago TRACON
Sun 04:12:44 AM 41.0500 -90.9167 90° East 321 369 24,000  Level Chicago TRACON
Sun 04:13:44 AM 41.0500 -90.9167 90° East 321 369 24,000  Level Chicago TRACON
Sun 04:14:44 AM 41.0500 -90.9167 90° East 321 369 24,000  Level Chicago TRACON
Sun 04:15:51 AM 33.3817 -104.0994 238° Southwest 299 344 24,000  Level Albuquerque Center
Sun 04:16:51 AM 33.3219 -104.1694 224° Southwest 300 345 24,000  Level Albuquerque Center
Sun 04:17:51 AM 33.2622 -104.2378 224° Southwest 298 343 24,000  Level Albuquerque Center
Sun 04:18:51 AM 33.2022 -104.3050 223° Southwest 296 341 24,000  Level Albuquerque Center
Sun 04:19:52 AM 33.1442 -104.3733 225° Southwest 292 336 24,000  Level Albuquerque Center
Sun 04:20:52 AM 33.0864 -104.4406 224° Southwest 290 334 24,000  Level Albuquerque Center
Sun 04:21:52 AM 33.0283 -104.5072 224° Southwest 289 333 24,000  Level Albuquerque Center
Sun 04:22:52 AM 32.9711 -104.5739 224° Southwest 288 331 24,000  Level Albuquerque Center
Sun 04:23:52 AM 32.9108 -104.6431 224° Southwest 298 343 24,000  Level Albuquerque Center
Sun 04:24:53 AM 32.8486 -104.7142 224° Southwest 308 354 24,000  Level Albuquerque Center
Sun 04:25:53 AM 32.7867 -104.7856 224° Southwest 310 357 24,000  Level Albuquerque Center
Sun 04:26:53 AM 32.7239 -104.8586 224° Southwest 315 362 24,000  Level Albuquerque Center
Sun 04:27:53 AM 32.6600 -104.9300 223° Southwest 317 365 24,000  Level Albuquerque Center
Sun 04:28:53 AM 32.6069 -104.9956 226° Southwest 321 369 24,000  Level Albuquerque Center
Sun 04:29:54 AM 32.5433 -105.0664 223° Southwest 316 364 24,000 -347 Level Albuquerque Center
Sun 04:30:54 AM 32.4794 -105.1392 224° Southwest 318 366 23,300 -1,000 Descending Albuquerque Center
Sun 04:31:54 AM 32.4175 -105.2075 223° Southwest 313 360 22,000 -1,250 Descending Albuquerque Center
Sun 04:32:54 AM 32.3581 -105.2789 225° Southwest 307 353 20,800 -1,150 Descending Albuquerque Center
Sun 04:33:54 AM 32.3019 -105.3486 226° Southwest 300 345 19,700 -1,200 Descending Albuquerque Center
Sun 04:34:54 AM 32.2458 -105.4172 226° Southwest 296 341 18,400 -1,289 Descending Albuquerque Center
Sun 04:35:55 AM 32.1894 -105.4858 226° Southwest 294 338 17,100 -1,289 Descending Albuquerque Center
Sun 04:36:55 AM 32.1303 -105.5542 224° Southwest 298 343 15,800 -1,300 Descending Albuquerque Center
Sun 04:37:55 AM 32.0717 -105.6225 225° Southwest 298 343 14,500 -1,350 Descending Albuquerque Center
Sun 04:38:55 AM 32.0117 -105.6900 224° Southwest 299 344 13,100 -1,300 Descending Albuquerque Center
Sun 04:39:55 AM 31.9603 -105.7686 232° Southwest 310 357 11,900 -1,339 Descending Albuquerque Center
Sun 04:40:56 AM 31.9308 -105.8575 249° West 294 338 10,400 -1,388 Descending Albuquerque Center
Sun 04:41:56 AM 31.9061 -105.9436 251° West 275 316 9,100 -700 Descending Albuquerque Center
Sun 04:42:56 AM 31.8842 -106.0244 252° West 218 251 9,000 -850 Descending Albuquerque Center
Sun 04:43:56 AM 31.8675 -106.0883 253° West 208 239 7,400 -1,000 Descending Albuquerque Center
Sun 04:44:56 AM 31.8483 -106.1556 251° West 215 247 7,000 -550 Descending Albuquerque Center
Sun 04:45:56 AM 31.8831 -106.1972 314° West 190 219 6,300 -496 Descending Albuquerque Center
Sun 04:46:57 AM 31.9075 -106.2331 309° West 181 208 6,000 -198 Descending Albuquerque Center
Sun 04:47:57 AM 31.8808 -106.2894 241° Southwest 173 199 5,900 -550 Descending Albuquerque Center
Sun 04:48:57 AM 31.8539 -106.3256 229° Southwest 150 173 4,900 -800 Descending Albuquerque Center
Sun 04:49:57 AM 31.8319 -106.3558 230° Southwest 126 145 4,300 -450 Descending Albuquerque Center
Sun 04:50:57 AM 31.8122 -106.3836 230° Southwest 117 135 4,000 -300 Descending Albuquerque Center

Login

Don't have an account? Register now (free) for customized features, flight alerts, and more!